Location: downtown San Diego
(32.7310°N, 117.1990°W)
Time: 17:58:24
(UTC-07:00)

Helios 1B rocket - Pass Details

Date: 19 May 2017
Orbit: 577 x 587 km, 98.3° (Epoch: 26 May)

Event Time Altitude Azimuth Distance (km) Brightness Sun altitude
Rises 20:21:21 0° 20° (NNE) 2,802 6.1 -7.8°
Reaches altitude 10° 20:23:36 10° 27° (NNE) 1,901 5.1 -8.3°
Maximum altitude 20:27:31 44° 100° (E) 815 2.8 -9.0°
Drops below altitude 10° 20:31:27 10° 172° (S) 1,894 4.7 -9.7°
Sets 20:33:40 0° 179° (S) 2,791 5.6 -10.1°
